Regional Weather Roundup
Issued by NWS

Home | Current Version | Previous Version | Graphics & Text | Print | Product List | Glossary On
Versions: 1 2 3 4 5 6 7 8 9 10 11 12 13 14 15 16 17 18 19 20 21 22 23 24 25 26 27 28 29 30 31 32 33 34 35 36 37 38 39 40 41 42 43 44 45 46 47 48 49 50
000
ASUS43 KFSD 191202
RWRSD

WEATHER ROUNDUP FOR SOUTH DAKOTA
NATIONAL WEATHER SERVICE SIOUX FALLS SD
600 AM CST SUN FEB 19 2017

NOTE: "FAIR" INDICATES FEW OR NO CLOUDS BELOW 12,000 FEET WITH NO
SIGNIFICANT WEATHER AND/OR OBSTRUCTIONS TO VISIBILITY.


SDZ001>005-009-010-012>017-191300-
NORTHWEST AND NORTH CENTRAL SOUTH DAKOTA

CITY           SKY/WX    TMP DP  RH WIND       PRES   REMARKS
BUFFALO          N/A     40  32  73 S7        29.45F
FAITH            N/A     38  33  82 S18       29.54F
MOBRIDGE       CLOUDY    40  31  70 SE15      29.59F
$$

SDZ012>016-024>037-041>051-057-063-072>074-191300-
SOUTHWEST AND SOUTH CENTRAL SOUTH DAKOTA

CITY           SKY/WX    TMP DP  RH WIND       PRES   REMARKS
RAPID CTY ARPT CLOUDY    38  30  73 CALM      29.55F
PIERRE         CLOUDY    40  32  73 E8        29.62F
CUSTER         CLOUDY    42  27  55 SW6       29.61F
ELLSWORTH AFB  CLOUDY    41  31  67 SW6       29.55F
PHILIP         CLOUDY    39  33  79 SE9       29.57F
PINE RIDGE     PTCLDY    42  33  70 SW10      29.59F
SPEARFISH      FAIR      43  30  61 SE10      29.55F
WINNER         FAIR      50  37  61 S20G29    29.64F
$$

SDZ004>011-016>023-039-040-191300-
NORTHEAST SOUTH DAKOTA

CITY           SKY/WX    TMP DP  RH WIND       PRES   REMARKS
ABERDEEN       PTCLDY    39  33  79 SE9       29.70F
WATERTOWN      MOCLDY    39  35  86 SE9       29.77R
BROOKINGS      CLOUDY    38  35  89 SE13      29.79S
SISSETON         N/A     35  35 100 S6        29.78R
$$

SDZ017-020-022-023-036>040-048>070-191300-
SOUTHEAST SOUTH DAKOTA

CITY           SKY/WX    TMP DP  RH WIND       PRES   REMARKS
SIOUX FALLS    CLOUDY    40  35  83 SE9       29.81S
HURON          CLOUDY    39  34  82 SE13      29.72F
CHAMBERLAIN    CLOUDY    38  35  88 E8        29.67F
MITCHELL       CLOUDY    37  33  85 SE10      29.74F
YANKTON        CLOUDY    37  30  75 E9        29.78S
$$

ABBREVIATIONS USED IN REMARKS
   TC - TEMPERATURE IN CELSIUS
  WCI - WIND CHILL INDEX
   HX - HEAT INDEX
  VSB - VISIBILITY





USA.gov is the U.S. government's official web portal to all federal, state and local government web resources and services.